Location: Gerlach
(40.6516°N, 119.3568°W)
Time: 07:31:24
(UTC-08:00)

A-11 Canister half - Visible Passes

Search period start: 27 January 2023 00:00
Search period end: 06 February 2023 00:00
Orbit: 1514 x 1685 km, 47.2° (Epoch: 26 January)

Date Brightness Start Highest point End Pass type
(mag) Time Alt. Az. Time Alt. Az. Time Alt. Az.
27 Jan 9.3 19:10:35 10° WNW 19:19:35 59° SW 19:26:54 17° SE visible
27 Jan 10.8 21:17:58 10° W 21:22:58 16° SW 21:25:12 15° SW visible
28 Jan 9.3 18:47:37 10° WNW 18:56:42 62° SW 19:05:46 10° SE visible
28 Jan 10.9 20:54:39 10° W 21:00:09 17° SW 21:04:44 12° SSW visible
29 Jan 9.3 18:24:40 10° WNW 18:33:48 66° SW 18:42:55 10° SE visible
29 Jan 10.8 20:31:24 10° W 20:37:20 19° SW 20:43:17 10° SSW visible
30 Jan 9.3 18:01:42 10° WNW 18:10:54 69° SW 18:20:03 10° SE visible
30 Jan 10.8 20:08:12 10° W 20:14:30 21° SW 20:20:50 10° S visible
31 Jan 9.3 17:38:45 10° WNW 17:48:00 72° SW 17:57:10 10° SE visible
31 Jan 10.8 19:45:01 10° W 19:51:40 23° SW 19:58:20 10° S visible
01 Feb 10.8 19:21:54 10° W 19:28:50 24° SW 19:35:48 10° S visible
02 Feb 10.8 18:58:47 10° WNW 19:06:00 26° SW 19:13:14 10° S visible
03 Feb 10.7 18:35:42 10° WNW 18:43:10 28° SW 18:50:38 10° S visible
04 Feb 10.7 18:12:37 10° WNW 18:20:19 31° SW 18:28:00 10° S visible
05 Feb 10.7 17:49:34 10° WNW 17:57:29 33° SW 18:05:21 10° S visible
